WetterOnline ( http://www.wetteronline.de )

Wetter aktuell Würzburg

Aktuelles Wetter: Würzburg (272m)

6-stündlich | Neueste Meldungen
Ortszeit Temperatur Wetter
Do, 19.07. 20:00 26.9° C wolkenlos
Do, 19.07. 14:00 26.8° C fast wolkenlos
Do, 19.07. 8:00 18.7° C leicht bewölkt
Do, 19.07. 2:00 18.0° C bedeckt
Mi, 18.07. 20:00 26.9° C wolkenlos
Mi, 18.07. 14:00 27.2° C fast wolkenlos
Mi, 18.07. 8:00 20.2° C wolkig
Mi, 18.07. 2:00 20.4° C bewölkt
Ortszeit Temperatur Wetter
Do, 19.07. 22:30 22.0° C leicht bewölkt
Do, 19.07. 22:20 22.0° C leicht bewölkt
Do, 19.07. 22:10 22.3° C leicht bewölkt
Do, 19.07. 22:00 22.9° C leicht bewölkt
Do, 19.07. 21:50 22.9° C leicht bewölkt
Do, 19.07. 21:40 22.9° C bedeckt
Do, 19.07. 21:30 23.7° C wolkenlos
Do, 19.07. 21:00 24.8° C fast wolkenlos
Do, 19.07. 20:30 26.4° C wolkenlos
Do, 19.07. 20:00 26.9° C wolkenlos
Do, 19.07. 19:30 27.6° C wolkenlos
Ortszeit Relative Feuchte Sichtweite
Do, 19.07. 20:00 27% 45 km
Do, 19.07. 14:00 28% 40 km
Do, 19.07. 8:00 55% 35 km
Do, 19.07. 2:00 56% 35 km
Mi, 18.07. 20:00 30% 45 km
Mi, 18.07. 14:00 32% 45 km
Mi, 18.07. 8:00 60% 35 km
Mi, 18.07. 2:00 56% 35 km
Ortszeit Relative Feuchte Sichtweite
Do, 19.07. 22:30 40% 40 km
Do, 19.07. 22:20 40% -
Do, 19.07. 22:10 40% -
Do, 19.07. 22:00 37% 45 km
Do, 19.07. 21:50 37% -
Do, 19.07. 21:40 36% -
Do, 19.07. 21:30 34% 40 km
Do, 19.07. 21:00 31% 40 km
Do, 19.07. 20:30 28% 45 km
Do, 19.07. 20:00 27% 45 km
Do, 19.07. 19:30 26% 35 km
Ortszeit Niederschlagsmenge Niederschlagsart
Do, 19.07. 20:00 0.0 l/m2 in 12 Std. -
Do, 19.07. 14:00 0.0 l/m2 in 6 Std. -
Do, 19.07. 8:00 0.0 l/m2 in 12 Std. -
Do, 19.07. 2:00 0.0 l/m2 in 6 Std. -
Mi, 18.07. 20:00 0.0 l/m2 in 12 Std. -
Mi, 18.07. 14:00 0.0 l/m2 in 6 Std. -
Mi, 18.07. 8:00 0.0 l/m2 in 12 Std. -
Mi, 18.07. 2:00 0.0 l/m2 in 6 Std. -
Ortszeit Niederschlagsmenge Niederschlagsart
Do, 19.07. 22:30 0.0 l/m2 in 1 Std. -
Do, 19.07. 22:20 keine Meldung -
Do, 19.07. 22:10 keine Meldung -
Do, 19.07. 22:00 0.0 l/m2 in 1 Std. -
Do, 19.07. 21:50 keine Meldung -
Do, 19.07. 21:40 keine Meldung -
Do, 19.07. 21:30 0.0 l/m2 in 1 Std. -
Do, 19.07. 21:00 0.0 l/m2 in 1 Std. -
Do, 19.07. 20:30 0.0 l/m2 in 1 Std. -
Do, 19.07. 20:00 0.0 l/m2 in 1 Std. -
Do, 19.07. 19:30 0.0 l/m2 in 1 Std. -
Ortszeit Stärke Spitze Richtung
km/h Bft. km/h Grad Sektor
Do, 19.07. 20:00 7 2 25 20° N
Do, 19.07. 14:00 11 2 25 290° W
Do, 19.07. 8:00 6 1 15 70° O
Do, 19.07. 2:00 7 2 22 30° NO
Mi, 18.07. 20:00 7 2 40 320° NW
Mi, 18.07. 14:00 17 3 30 320° NW
Mi, 18.07. 8:00 7 2 22 310° NW
Mi, 18.07. 2:00 9 2 28 330° NW
Ortszeit Stärke Spitze Richtung
km/h Bft. km/h Grad Sektor
Do, 19.07. 22:30 6 1 7 40° NO
Do, 19.07. 22:20 6 1 - 40° NO
Do, 19.07. 22:10 6 1 - 30° NO
Do, 19.07. 22:00 6 1 11 20° N
Do, 19.07. 21:50 6 1 - 20° N
Do, 19.07. 21:40 6 1 - 30° NO
Do, 19.07. 21:30 6 1 11 30° NO
Do, 19.07. 21:00 7 2 14 40° NO
Do, 19.07. 20:30 7 2 14 10° N
Do, 19.07. 20:00 7 2 18 20° N
Do, 19.07. 19:30 7 2 14 360° N
Ortszeit Untergrenze Bedeckung Gattung
total tief tief mittel hoch
Do, 19.07. 20:00 - 0/8 0/8 - - -
Do, 19.07. 14:00 1800 m 1/8 1/8 - - -
Do, 19.07. 8:00 10500 m 8/8 0/8 - - -
Do, 19.07. 2:00 - 8/8 - - - -
Mi, 18.07. 20:00 - 0/8 0/8 - - -
Mi, 18.07. 14:00 1800 m 1/8 1/8 - - -
Mi, 18.07. 8:00 1800 m 6/8 5/8 - - -
Mi, 18.07. 2:00 3600 m 8/8 5/8 - - -
Ortszeit Bedeckungsgrad in Achtel und Wolkenuntergrenze
Do, 19.07. 22:30 1(3900m) 3(10500m)
Do, 19.07. 22:20 1(3900m) 3(10500m)
Do, 19.07. 22:10 1(3900m) 2(10500m)
Do, 19.07. 22:00 1(3000m) 4(10500m) 3(10500m)
Do, 19.07. 21:50 1(3000m) 4(10500m)
Do, 19.07. 21:40 9 9 9
Do, 19.07. 21:30 keine Wolken
Do, 19.07. 21:00 1(2400m)
Do, 19.07. 20:30 1(2400m)
Do, 19.07. 20:00 keine Wolken
Do, 19.07. 19:30 keine Wolken
Ortszeit Luftdruck NN (hPa) Tendenz (hPa in 3 Std.)
Do, 19.07. 20:00 1015 - 0,8
Do, 19.07. 14:00 1017 - 0,8
Do, 19.07. 8:00 1019 + 0,2
Do, 19.07. 2:00 1018 + 1,0
Mi, 18.07. 20:00 1015 - 0,4
Mi, 18.07. 14:00 1016 - 0,6
Mi, 18.07. 8:00 1018 + 0,9
Mi, 18.07. 2:00 1016 + 0,8
Ortszeit Luftdruck NN (hPa) Tendenz (hPa in 3 Std.)
Do, 19.07. 22:30 1016 + 0,3
Do, 19.07. 22:20 1016 keine Meldung
Do, 19.07. 22:10 1015 keine Meldung
Do, 19.07. 22:00 1015 0,0
Do, 19.07. 21:50 1015 keine Meldung
Do, 19.07. 21:40 1015 keine Meldung
Do, 19.07. 21:30 1015 - 0,3
Do, 19.07. 21:00 1015 - 0,3
Do, 19.07. 20:30 1015 - 0,6
Do, 19.07. 20:00 1015 - 0,8
Do, 19.07. 19:30 1015 - 0,9
Ortszeit Schneehöhe (cm)
Do, 19.07. 20:00 -
Do, 19.07. 14:00 -
Do, 19.07. 8:00 -
Do, 19.07. 2:00 -
Mi, 18.07. 20:00 -
Mi, 18.07. 14:00 -
Mi, 18.07. 8:00 -
Mi, 18.07. 2:00 -
Ortszeit Schneehöhe (cm)
Do, 19.07. 22:30 -
Do, 19.07. 22:20 -
Do, 19.07. 22:10 -
Do, 19.07. 22:00 -
Do, 19.07. 21:50 -
Do, 19.07. 21:40 -
Do, 19.07. 21:30 -
Do, 19.07. 21:00 -
Do, 19.07. 20:30 -
Do, 19.07. 20:00 -
Do, 19.07. 19:30 -
Link zu dieser Seite / Seite empfehlen

Das Wetter in ...